Location: Mentone
(34.5413°N, 85.5351°W)
Time: 06:54:29
(UTC-05:00)

Amateur Radio Satellites - All Passes

Search period start: 25 July 2016 06:24
Search period end: 26 July 2016 06:24
Location: Mentone, 34.5413°N, 85.5351°W

Satellite Date Start Highest point End Downlink Frequencies (MHz)
Time Altitude Azimuth
CUTE-I 25 Jul 06:24:38 06:29:27 34° 98° (E) 06:34:13 437.470
STRAND 1 25 Jul 06:36:24 06:41:03 35° 70° (ENE) 06:45:41 437.568
GOMX 1 25 Jul 06:39:17 06:44:04 40° 98° (E) 06:49:04 467.674
NOAA 18 25 Jul 06:40:05 06:45:26 47° 100° (E) 06:50:43 137.9125
DOVE 4 25 Jul 06:45:17 06:49:12 22° 94° (E) 06:53:11 437.250
NOAA 15 25 Jul 06:52:22 06:57:39 88° 103° (ESE) 07:02:56 137.62
BRITE-PL 25 Jul 07:02:49 07:07:29 51° 285° (WNW) 07:12:32 437.365/2234.400
LilacSat-2 25 Jul 07:13:17 07:17:05 56° 284° (WNW) 07:20:51 437.200
CINEMA 3 25 Jul 07:16:24 07:18:03 11° 90° (E) 07:19:42 145.822/145.860
JUGNU 25 Jul 07:22:55 07:24:18 11° 195° (SSW) 07:25:42 437.505
CANX-2 25 Jul 07:36:53 07:39:15 15° 93° (E) 07:41:37 2200.000
Cubesat XI-IV 25 Jul 07:39:57 07:45:00 44° 289° (WNW) 07:50:02 437.490
RS-15 25 Jul 07:40:31 07:51:53 76° 300° (WNW) 08:03:58 29.354- 29.394
SRMSAT 25 Jul 07:44:20 07:48:12 18° 185° (S) 07:52:04 437.500
CUTE 1.7 + AOD 2 25 Jul 07:50:17 07:53:14 18° 94° (E) 07:56:10 437.475
AIST 2 25 Jul 07:53:37 07:56:48 21° 249° (WSW) 07:59:57 435.215
Cosmos 2491 25 Jul 07:55:17 08:02:12 25° 71° (ENE) 08:09:05 435.465 / 435.565
O/OREOS (USA 219) 25 Jul 07:56:17 08:00:19 32° 256° (WSW) 08:04:22 437.305
SO-50 25 Jul 07:56:26 08:00:56 38° 113° (ESE) 08:05:25 436.795
HO-68 25 Jul 08:02:54 08:09:27 37° 98° (E) 08:15:55 435.675
CUTE-I 25 Jul 08:04:58 08:09:18 26° 292° (WNW) 08:13:37 437.470
STRAND 1 25 Jul 08:16:12 08:20:13 23° 265° (W) 08:24:16 437.568
GOMX 1 25 Jul 08:18:08 08:21:51 21° 291° (WNW) 08:25:43 467.674
NOAA 18 25 Jul 08:21:45 08:25:41 20° 295° (WNW) 08:29:36 137.9125
DOVE 4 25 Jul 08:22:09 08:26:55 39° 287° (WNW) 08:31:47 437.250
PRISM 25 Jul 08:26:35 08:30:37 63° 75° (ENE) 08:34:38 437.425
SEEDS 25 Jul 08:32:55 08:36:53 42° 99° (E) 08:40:49 437.485
CUBEBUG 2 25 Jul 08:37:20 08:41:10 24° 95° (E) 08:44:55 437.445
COMPASS 1 25 Jul 08:49:01 08:53:00 45° 99° (E) 08:56:56 437.405
CINEMA 3 25 Jul 08:50:33 08:55:32 66° 285° (WNW) 09:00:28 145.822/145.860
CANX-2 25 Jul 09:11:22 09:15:12 36° 287° (WNW) 09:19:03 2200.000
Oscar 11 25 Jul 09:12:11 09:15:43 24° 96° (E) 09:19:13 145.826/435.025
YUBILEINY 25 Jul 09:19:24 09:27:30 43° 88° (E) 09:35:38 435.215
AAUSAT CUBESAT 2 25 Jul 09:19:32 09:23:40 87° 101° (E) 09:27:46 437.432
CUTE 1.7 + AOD 2 25 Jul 09:25:26 09:29:04 29° 288° (WNW) 09:32:40 437.475
M-CUBED/EXP-1 PRIME 25 Jul 09:30:07 09:32:02 12° 97° (E) 09:33:56 437.505
ANTELSAT 25 Jul 09:30:17 09:33:59 24° 69° (ENE) 09:37:44 437.575/2403.000
SRMSAT 25 Jul 09:34:50 09:36:38 11° 195° (SSW) 09:38:26 437.500
SO-50 25 Jul 09:37:35 09:41:29 23° 309° (NW) 09:45:23 436.795
HO-68 25 Jul 09:50:34 09:57:02 37° 294° (WNW) 10:03:28 435.675
Cosmos 2491 25 Jul 09:50:57 09:59:30 61° 269° (W) 10:08:04 435.465 / 435.565
UWE-3 25 Jul 09:55:51 10:00:25 63° 285° (WNW) 10:04:51 435.000/436.395/437.385
AUBIESAT-1 25 Jul 09:56:52 10:00:18 20° 99° (E) 10:03:43 437.475
RS-15 25 Jul 09:58:01 10:06:47 23° 327° (NNW) 10:15:55 29.354- 29.394
HUMSAT D 25 Jul 10:01:08 10:03:50 17° 94° (E) 10:06:30 437.325/437.525
DELFI C3 25 Jul 10:01:27 10:05:07 37° 98° (E) 10:08:47 145.870
ZACube-1 25 Jul 10:01:32 10:06:03 85° 281° (W) 10:10:26 437.345
FUNcube-1 25 Jul 10:01:52 10:06:23 90° 241° (WSW) 10:10:45 145.935
SEEDS 25 Jul 10:10:15 10:12:10 13° 293° (WNW) 10:14:06 437.485
TIGRISAT 25 Jul 10:11:37 10:16:10 68° 75° (ENE) 10:20:49 435.000
CUBEBUG 2 25 Jul 10:13:42 10:17:41 27° 290° (WNW) 10:21:34 437.445
COMPASS 1 25 Jul 10:26:30 10:28:07 12° 293° (WNW) 10:29:43 437.405
UNISAT 6 25 Jul 10:27:13 10:31:47 75° 258° (WSW) 10:36:28 437.425
Cosmos 2504 25 Jul 10:30:42 10:38:47 43° 88° (E) 10:46:57 435.465 / 435.565
NANOSAT C BR1 25 Jul 10:32:25 10:34:53 15° 68° (ENE) 10:37:23 145.865
DUCHIFAT 1 25 Jul 10:37:36 10:40:16 16° 68° (ENE) 10:42:55 145.980
Oscar 11 25 Jul 10:48:17 10:51:42 23° 290° (WNW) 10:55:05 145.826/435.025
QB50P1 25 Jul 10:52:14 10:55:50 28° 71° (ENE) 10:59:28 145.935-145.965
POPSAT HIP 1 25 Jul 10:58:17 11:02:03 32° 72° (ENE) 11:05:51 437.405
M-CUBED/EXP-1 PRIME 25 Jul 11:02:09 11:06:47 60° 290° (WNW) 11:11:24 437.505
BUGSAT 1 25 Jul 11:02:14 11:04:03 13° 67° (ENE) 11:05:53 437.445
ANTELSAT 25 Jul 11:06:38 11:10:31 27° 264° (W) 11:14:30 437.575/2403.000
AISAT 25 Jul 11:14:33 11:15:03 10° 92° (E) 11:15:34 437.250
YUBILEINY 25 Jul 11:16:27 11:24:17 36° 285° (WNW) 11:32:13 435.215
QB50P2 25 Jul 11:18:10 11:22:20 62° 75° (ENE) 11:26:34 145.880/145.840
POLYITAN 1 25 Jul 11:20:47 11:24:59 64° 75° (ENE) 11:29:13 437.675
AUBIESAT-1 25 Jul 11:30:32 11:34:45 35° 293° (WNW) 11:38:57 437.475
HUMSAT D 25 Jul 11:35:47 11:39:29 31° 288° (WNW) 11:43:09 437.325/437.525
ESTCUBE 1 25 Jul 11:37:12 11:41:19 35° 98° (E) 11:45:25 437.505/2401.250
DELFI C3 25 Jul 11:37:49 11:39:36 13° 292° (WNW) 11:41:23 145.870
JAS-2 25 Jul 11:48:52 11:54:41 41° 72° (ENE) 11:59:56 435.910
50 SAT 25 Jul 11:59:23 12:02:42 34° 98° (E) 12:06:00 437.505
VELOX 1 25 Jul 12:03:01 12:07:10 38° 99° (E) 12:11:18 145.980
NANOSAT C BR1 25 Jul 12:06:23 12:10:17 37° 262° (W) 12:14:13 145.865
CUBEBUG 1 25 Jul 12:09:46 12:14:06 56° 101° (E) 12:18:25 437.445
DUCHIFAT 1 25 Jul 12:11:49 12:15:38 34° 262° (W) 12:19:30 145.980
SPROUT 25 Jul 12:14:42 12:18:10 23° 96° (E) 12:21:36 437.525
RS-15 25 Jul 12:21:15 12:26:14 13° 4° (N) 12:31:16 29.354- 29.394
Cosmos 2504 25 Jul 12:24:06 12:32:06 38° 285° (WNW) 12:40:14 435.465 / 435.565
QB50P1 25 Jul 12:28:29 12:31:34 20° 265° (W) 12:34:41 145.935-145.965
POPSAT HIP 1 25 Jul 12:35:06 12:37:51 17° 266° (W) 12:40:39 437.405
BUGSAT 1 25 Jul 12:35:10 12:39:00 41° 261° (W) 12:42:55 437.445
Gurwin Techsat 1B 25 Jul 12:36:26 12:38:20 12° 62° (ENE) 12:40:14 435.225
AISAT 25 Jul 12:47:26 12:51:49 58° 286° (WNW) 12:56:11 437.250
AIST 1 25 Jul 12:47:29 12:50:30 19° 88° (E) 12:53:29
DX 1 25 Jul 12:54:38 12:58:59 71° 284° (WNW) 13:03:20 434.975-435.025
Oscar 19 25 Jul 13:08:50 13:13:49 60° 74° (ENE) 13:18:52 437.125/150
UKube-1 25 Jul 13:12:25 13:16:39 55° 286° (WNW) 13:20:52 .
ESTCUBE 1 25 Jul 13:14:49 13:17:50 18° 292° (WNW) 13:20:50 437.505/2401.250
TISAT 1 25 Jul 13:17:42 13:21:20 27° 97° (E) 13:24:56 437.305
AO-85 25 Jul 13:30:25 13:35:22 37° 113° (ESE) 13:40:12 145.980
JAS-2 25 Jul 13:34:46 13:39:46 24° 263° (W) 13:44:23 435.910
50 SAT 25 Jul 13:34:51 13:35:59 11° 292° (WNW) 13:37:05 437.505
VELOX 1 25 Jul 13:40:32 13:43:17 16° 293° (WNW) 13:46:03 145.980
CUBEBUG 1 25 Jul 13:48:26 13:49:51 11° 295° (WNW) 13:51:17 437.445
SPROUT 25 Jul 13:50:30 13:53:59 24° 290° (WNW) 13:57:28 437.525
SWISSCUBE 25 Jul 13:55:45 13:58:17 14° 93° (E) 14:00:49 437.505
Gurwin Techsat 1B 25 Jul 14:12:16 14:17:34 76° 257° (WSW) 14:22:55 435.225
BEESAT 25 Jul 14:16:23 14:20:05 22° 96° (E) 14:23:44 436.000
AIST 1 25 Jul 14:24:18 14:27:52 26° 283° (WNW) 14:31:27
RS-15 25 Jul 14:34:56 14:45:07 28° 39° (NE) 14:55:12 29.354- 29.394
ITUPSAT 1 25 Jul 14:37:33 14:41:58 37° 98° (E) 14:46:20 437.325
ITAMSAT 1 25 Jul 14:38:30 14:43:39 63° 74° (ENE) 14:48:50 435.822/435.867
Oscar 19 25 Jul 14:51:13 14:53:28 13° 268° (W) 14:55:45 437.125/150
TISAT 1 25 Jul 14:53:37 14:56:47 21° 291° (WNW) 14:59:57 437.305
AO-7 25 Jul 14:58:11 15:06:12 53° 67° (ENE) 15:14:15 29.400- 29.500
CUSAT 1 25 Jul 15:00:17 15:03:16 61° 81° (E) 15:07:00 437.405
DANDE 25 Jul 15:06:05 15:07:12 12° 77° (ENE) 15:08:20 436.750
AO-85 25 Jul 15:11:19 15:15:53 28° 307° (NW) 15:20:20 145.980
MOZHAYETS 4 25 Jul 15:17:43 15:18:15 10° 91° (E) 15:18:46
GONETS M04 25 Jul 15:22:43 15:31:13 63° 92° (E) 15:39:45
Cosmos 2499 25 Jul 15:28:34 15:37:01 51° 89° (E) 15:45:23 435.465 / 435.565
SWISSCUBE 25 Jul 15:31:44 15:36:17 47° 287° (WNW) 15:40:49 437.505
BEESAT 25 Jul 15:53:40 15:57:50 31° 290° (WNW) 16:02:00 436.000
ITUPSAT 1 25 Jul 16:16:08 16:19:30 19° 293° (WNW) 16:22:51 437.325
ITAMSAT 1 25 Jul 16:21:11 16:23:28 13° 268° (W) 16:25:46 435.822/435.867
KKS-1 25 Jul 16:30:44 16:35:14 73° 101° (E) 16:39:42 437.445
PHONESAT 2.4 25 Jul 16:31:56 16:34:19 21° 146° (SE) 16:36:43 2401.200-2431.200
SO-50 25 Jul 16:32:27 16:35:02 15° 47° (NE) 16:37:34 436.795
NOAA 15 25 Jul 16:34:06 16:35:07 11° 62° (ENE) 16:36:09 137.62
RS-15 25 Jul 16:46:56 16:59:23 89° 245° (WSW) 17:11:33 29.354- 29.394
HORYU 2 25 Jul 16:49:11 16:53:39 73° 76° (ENE) 16:58:08 437.375
DANDE 25 Jul 16:49:28 16:49:46 10° 266° (W) 16:50:05 436.750
MOZHAYETS 4 25 Jul 16:51:15 16:55:44 60° 285° (WNW) 17:00:13
AO-7 25 Jul 16:52:06 16:59:09 30° 262° (W) 17:06:15 29.400- 29.500
STARS 25 Jul 17:14:44 17:19:10 72° 284° (WNW) 17:23:35 437.465
Cubesat XI-IV 25 Jul 17:19:32 17:23:44 24° 67° (ENE) 17:27:56 437.490
GONETS M04 25 Jul 17:21:54 17:28:33 24° 289° (WNW) 17:35:17
Cosmos 2499 25 Jul 17:22:38 17:30:18 32° 286° (WNW) 17:37:56 435.465 / 435.565
CUTE-I 25 Jul 17:42:53 17:47:51 40° 71° (ENE) 17:52:50 437.470
GOMX 1 25 Jul 17:45:17 17:48:36 24° 70° (ENE) 17:52:02 467.674
DOVE 4 25 Jul 17:49:48 17:51:13 11° 65° (ENE) 17:52:39 437.250
LilacSat-2 25 Jul 17:51:34 17:55:09 38° 74° (ENE) 17:58:47 437.200
NOAA 18 25 Jul 18:02:45 18:08:11 65° 73° (ENE) 18:13:41 137.9125
CUBESAT XI-V 25 Jul 18:05:20 18:09:57 84° 283° (WNW) 18:14:34 437.345
PHONESAT 2.4 25 Jul 18:07:36 18:10:38 61° 340° (NNW) 18:13:41 2401.200-2431.200
NOAA 15 25 Jul 18:08:53 18:14:08 83° 256° (WSW) 18:19:24 137.62
BRITE-PL 25 Jul 18:10:54 18:15:03 61° 260° (W) 18:19:10 437.365/2234.400
SO-50 25 Jul 18:11:23 18:15:54 59° 244° (WSW) 18:20:16 436.795
BEESAT 3 25 Jul 18:20:47 18:24:25 39° 114° (ESE) 18:28:06 437.485
BEESAT 2 25 Jul 18:23:56 18:26:55 21° 111° (ESE) 18:29:55 435.950
HO-68 25 Jul 18:29:26 18:34:16 20° 60° (ENE) 18:39:05 435.675
STRAND 1 25 Jul 18:51:39 18:54:37 15° 93° (E) 18:57:33 437.568
Cubesat XI-IV 25 Jul 18:58:35 19:03:31 38° 261° (W) 19:08:31 437.490
RS-15 25 Jul 19:02:17 19:10:08 20° 261° (W) 19:17:56 29.354- 29.394
PCSat 25 Jul 19:10:18 19:15:29 49° 111° (ESE) 19:20:42 145.827
SEEDS 25 Jul 19:21:51 19:24:53 19° 70° (ENE) 19:27:56 437.485
GOMX 1 25 Jul 19:23:31 19:26:40 21° 265° (W) 19:29:52 467.674
CUTE-I 25 Jul 19:23:55 19:27:58 22° 265° (W) 19:32:03 437.470
DOVE 4 25 Jul 19:24:18 19:28:22 50° 261° (W) 19:32:38 437.250
LilacSat-2 25 Jul 19:28:20 19:29:36 11° 268° (W) 19:30:52 437.200
CUBEBUG 2 25 Jul 19:33:04 19:35:28 14° 66° (ENE) 19:37:53 437.445
YUBILEINY 25 Jul 19:35:27 19:40:47 17° 67° (ENE) 19:46:05 435.215
COMPASS 1 25 Jul 19:36:58 19:40:01 20° 70° (ENE) 19:43:04 437.405
PHONESAT 2.4 25 Jul 19:44:49 19:47:29 26° 356° (N) 19:50:09 2401.200-2431.200
NOAA 18 25 Jul 19:46:34 19:49:14 14° 268° (W) 19:51:55 137.9125
CINEMA 3 25 Jul 19:48:20 19:52:43 75° 77° (ENE) 19:57:22 145.822/145.860
CANX-2 25 Jul 19:59:47 20:04:04 84° 257° (WSW) 20:08:23 2200.000
BEESAT 3 25 Jul 19:59:53 20:02:15 15° 310° (NW) 20:04:38 437.485
BEESAT 2 25 Jul 20:01:15 20:04:35 26° 306° (NW) 20:07:57 435.950
Oscar 11 25 Jul 20:04:57 20:06:59 13° 67° (ENE) 20:09:01 145.826/435.025
AAUSAT CUBESAT 2 25 Jul 20:06:15 20:10:01 34° 73° (ENE) 20:13:47 437.432
AIST 2 25 Jul 20:10:48 20:12:45 13° 108° (ESE) 20:14:42 435.215
CUTE 1.7 + AOD 2 25 Jul 20:13:37 20:17:52 66° 259° (WSW) 20:22:08 437.475
PRISM 25 Jul 20:14:00 20:15:06 11° 93° (E) 20:16:13 437.425
HO-68 25 Jul 20:14:04 20:21:13 72° 256° (WSW) 20:28:25 435.675
O/OREOS (USA 219) 25 Jul 20:25:35 20:29:46 42° 105° (ESE) 20:33:59 437.305
STRAND 1 25 Jul 20:29:05 20:34:01 50° 287° (WNW) 20:38:55 437.568
AUBIESAT-1 25 Jul 20:41:22 20:42:47 12° 60° (ENE) 20:44:14 437.475
DELFI C3 25 Jul 20:45:15 20:47:26 14° 68° (ENE) 20:49:36 145.870
UWE-3 25 Jul 20:48:35 20:53:04 67° 76° (ENE) 20:57:40 435.000/436.395/437.385
Cosmos 2491 25 Jul 20:52:07 20:59:32 33° 85° (E) 21:06:56 435.465 / 435.565
ZACube-1 25 Jul 20:53:17 20:57:36 47° 74° (ENE) 21:01:59 437.345
FUNcube-1 25 Jul 20:53:23 20:57:39 44° 74° (ENE) 21:01:59 145.935
PCSat 25 Jul 20:55:06 20:59:07 21° 307° (NW) 21:03:10 145.827
SEEDS 25 Jul 20:56:43 21:00:22 28° 263° (W) 21:04:03 437.485
CUBEBUG 2 25 Jul 21:07:13 21:11:34 49° 261° (W) 21:16:06 437.445
COMPASS 1 25 Jul 21:11:48 21:15:22 27° 263° (W) 21:18:57 437.405
ISS 25 Jul 21:20:15 21:23:29 71° 135° (SE) 21:26:44 145.825
PHONESAT 2.4 25 Jul 21:21:35 21:24:27 34° 13° (NNE) 21:27:18 2401.200-2431.200
YUBILEINY 25 Jul 21:29:46 21:38:39 85° 265° (W) 21:47:26 435.215
Oscar 11 25 Jul 21:38:30 21:42:40 46° 261° (W) 21:46:52 145.826/435.025
AAUSAT CUBESAT 2 25 Jul 21:43:07 21:45:34 15° 266° (W) 21:48:00 437.432
M-CUBED/EXP-1 PRIME 25 Jul 21:45:31 21:49:07 82° 256° (WSW) 21:53:03 437.505
PRISM 25 Jul 21:46:41 21:50:36 45° 286° (WNW) 21:54:31 437.425
AIST 2 25 Jul 21:46:54 21:50:48 43° 302° (WNW) 21:54:45 435.215
O/OREOS (USA 219) 25 Jul 22:06:41 22:09:21 15° 301° (WNW) 22:12:01 437.305
TIGRISAT 25 Jul 22:07:51 22:11:06 19° 94° (E) 22:14:19 435.000
AO-85 25 Jul 22:08:05 22:09:28 11° 44° (NE) 22:10:50 145.980
AUBIESAT-1 25 Jul 22:13:15 22:16:45 43° 257° (WSW) 22:20:32 437.475
DELFI C3 25 Jul 22:18:19 22:21:58 34° 262° (W) 22:25:36 145.870
Cosmos 2504 25 Jul 22:21:02 22:29:09 70° 82° (E) 22:36:38 435.465 / 435.565
HUMSAT D 25 Jul 22:22:28 22:26:45 76° 258° (WSW) 22:31:05 437.325/437.525
UNISAT 6 25 Jul 22:23:00 22:27:04 30° 96° (E) 22:31:02 437.425
FUNcube-1 25 Jul 22:31:42 22:34:04 14° 268° (W) 22:36:28 145.935
ZACube-1 25 Jul 22:31:58 22:34:06 13° 268° (W) 22:36:14 437.345
ESTCUBE 1 25 Jul 22:33:48 22:37:15 22° 69° (ENE) 22:40:42 437.505/2401.250
50 SAT 25 Jul 22:36:35 22:36:50 10° 67° (ENE) 22:37:05 437.505
Cosmos 2491 25 Jul 22:47:43 22:55:58 47° 282° (WNW) 23:04:17 435.465 / 435.565
VELOX 1 25 Jul 22:57:26 23:00:49 22° 69° (ENE) 23:04:14 145.980
PHONESAT 2.4 25 Jul 22:58:02 23:01:02 54° 209° (SSW) 23:04:03 2401.200-2431.200
ISS 25 Jul 22:58:32 23:00:14 13° 332° (NNW) 23:01:57 145.825
ANTELSAT 25 Jul 23:01:07 23:05:46 84° 102° (ESE) 23:10:17 437.575/2403.000
CUBEBUG 1 25 Jul 23:02:34 23:06:16 29° 71° (ENE) 23:09:59 437.445
SPROUT 25 Jul 23:06:40 23:08:17 12° 66° (ENE) 23:09:55 437.525
QB50P2 25 Jul 23:08:18 23:10:25 13° 93° (E) 23:12:32 145.880/145.840
POLYITAN 1 25 Jul 23:10:53 23:13:05 14° 93° (E) 23:15:17 437.675
YUBILEINY 25 Jul 23:30:16 23:34:00 13° 282° (WNW) 23:37:44 435.215
AISAT 25 Jul 23:40:56 23:45:18 79° 76° (ENE) 23:49:41 437.250
TIGRISAT 25 Jul 23:43:40 23:47:50 34° 288° (WNW) 23:51:55 435.000
AO-85 25 Jul 23:46:14 23:50:29 67° 243° (WSW) 23:54:24 145.980
DX 1 25 Jul 23:46:23 23:50:38 61° 75° (ENE) 23:54:54 434.975-435.025
NANOSAT C BR1 25 Jul 23:53:56 23:58:02 43° 99° (E) 00:02:05 145.865
DUCHIFAT 1 25 Jul 23:58:59 00:03:07 46° 99° (E) 00:07:11 145.980
UNISAT 6 26 Jul 00:00:02 00:03:33 22° 291° (WNW) 00:07:01 437.425
UKube-1 26 Jul 00:03:01 00:07:18 76° 76° (ENE) 00:11:36 .
50 SAT 26 Jul 00:06:33 00:10:02 41° 261° (W) 00:13:32 437.505
TISAT 1 26 Jul 00:07:25 00:09:27 13° 67° (ENE) 00:11:30 437.305
ESTCUBE 1 26 Jul 00:09:59 00:13:52 28° 263° (W) 00:17:45 437.505/2401.250
QB50P1 26 Jul 00:15:16 00:19:34 86° 99° (E) 00:23:51 145.935-145.965
Cosmos 2504 26 Jul 00:16:29 00:21:28 18° 280° (W) 00:26:17 435.465 / 435.565
BUGSAT 1 26 Jul 00:20:16 00:24:10 34° 98° (E) 00:28:02 437.445
POPSAT HIP 1 26 Jul 00:21:34 00:25:53 81° 283° (WNW) 00:30:09 437.405
VELOX 1 26 Jul 00:33:28 00:37:07 26° 263° (W) 00:40:49 145.980
AIST 1 26 Jul 00:33:57 00:38:10 49° 81° (E) 00:42:24
CUBEBUG 1 26 Jul 00:39:25 00:42:32 19° 265° (W) 00:45:40 437.445
SPROUT 26 Jul 00:39:37 00:43:44 49° 260° (W) 00:47:55 437.525
QB50P2 26 Jul 00:42:20 00:46:22 41° 287° (WNW) 00:50:23 145.880/145.840
POLYITAN 1 26 Jul 00:44:59 00:49:01 40° 287° (WNW) 00:53:01 437.675
JAS-2 26 Jul 00:45:24 00:50:31 46° 100° (E) 00:56:06 435.910
SWISSCUBE 26 Jul 00:59:57 01:01:47 12° 64° (ENE) 01:03:37 437.505
BEESAT 26 Jul 01:19:57 01:23:10 18° 67° (ENE) 01:26:23 436.000
Oscar 19 26 Jul 01:24:19 01:28:43 28° 97° (E) 01:33:07 437.125/150
Cosmos 2499 26 Jul 01:28:53 01:31:02 11° 63° (ENE) 01:33:08 435.465 / 435.565
NANOSAT C BR1 26 Jul 01:31:13 01:33:20 14° 293° (WNW) 01:35:28 145.865
DUCHIFAT 1 26 Jul 01:36:28 01:38:21 13° 294° (WNW) 01:40:14 145.980
GONETS M04 26 Jul 01:38:08 01:45:10 26° 71° (ENE) 01:52:10
TISAT 1 26 Jul 01:40:44 01:44:42 42° 261° (W) 01:48:42 437.305
ITUPSAT 1 26 Jul 01:40:59 01:45:07 30° 70° (ENE) 01:49:16 437.325
JUGNU 26 Jul 01:41:40 01:44:20 13° 167° (SSE) 01:46:58 437.505
BUGSAT 1 26 Jul 01:56:29 01:59:14 17° 292° (WNW) 02:01:57 437.445
AIST 1 26 Jul 02:14:20 02:15:14 11° 275° (W) 02:16:08
JAS-2 26 Jul 02:31:41 02:35:20 19° 293° (WNW) 02:39:10 435.910
Gurwin Techsat 1B 26 Jul 02:32:06 02:37:21 58° 101° (E) 02:42:34 435.225
SWISSCUBE 26 Jul 02:34:15 02:38:59 63° 258° (WSW) 02:43:45 437.505
ITAMSAT 1 26 Jul 02:55:25 02:59:53 29° 97° (E) 03:04:20 435.822/435.867
BEESAT 26 Jul 02:56:07 03:00:36 40° 261° (W) 03:05:07 436.000
Oscar 19 26 Jul 03:03:31 03:07:56 29° 291° (WNW) 03:12:22 437.125/150
AO-7 26 Jul 03:05:18 03:11:01 20° 94° (E) 03:16:43 29.400- 29.500
Cosmos 2499 26 Jul 03:17:43 03:25:33 81° 83° (E) 03:32:48 435.465 / 435.565
ITUPSAT 1 26 Jul 03:19:02 03:22:54 24° 264° (W) 03:26:46 437.325
KKS-1 26 Jul 03:25:15 03:29:25 42° 73° (ENE) 03:33:37 437.445
JUGNU 26 Jul 03:28:36 03:32:37 19° 177° (S) 03:36:37 437.505
GONETS M04 26 Jul 03:33:50 03:42:26 60° 269° (W) 03:51:03
MOZHAYETS 4 26 Jul 03:49:02 03:53:41 84° 78° (ENE) 03:58:20
ISS 26 Jul 03:51:14 03:53:38 19° 32° (NNE) 03:56:01 145.825
SRMSAT 26 Jul 03:55:52 03:58:21 13° 167° (SSE) 04:00:49 437.500
CUSAT 1 26 Jul 03:59:48 04:04:32 76° 277° (W) 04:08:09 437.405
PCSat 26 Jul 04:02:23 04:06:21 20° 52° (NE) 04:10:19 145.827
STARS 26 Jul 04:07:33 04:11:52 62° 75° (ENE) 04:16:14 437.465
DANDE 26 Jul 04:07:56 04:13:56 48° 97° (E) 04:18:31 436.750
Gurwin Techsat 1B 26 Jul 04:13:42 04:16:46 16° 296° (WNW) 04:19:48 435.225
BEESAT 3 26 Jul 04:18:20 04:22:18 76° 243° (WSW) 04:26:13 437.485
BEESAT 2 26 Jul 04:21:40 04:25:37 57° 59° (ENE) 04:29:31 435.950
ITAMSAT 1 26 Jul 04:34:51 04:39:14 28° 291° (WNW) 04:43:36 435.822/435.867
HORYU 2 26 Jul 04:44:43 04:47:47 18° 95° (E) 04:50:49 437.375
AO-7 26 Jul 04:56:03 05:04:23 74° 290° (WNW) 05:12:39 29.400- 29.500
RS-15 26 Jul 04:58:57 05:05:23 17° 98° (E) 05:11:56 29.354- 29.394
KKS-1 26 Jul 05:03:46 05:06:08 14° 267° (W) 05:08:31 437.445
CUBESAT XI-V 26 Jul 05:04:51 05:09:24 62° 75° (ENE) 05:13:57 437.345
Cosmos 2499 26 Jul 05:13:49 05:17:25 14° 281° (WNW) 05:20:56 435.465 / 435.565
JUGNU 26 Jul 05:17:12 05:20:56 17° 187° (S) 05:24:39 437.505
ISS 26 Jul 05:27:06 05:30:10 39° 227° (SW) 05:33:13 145.825
Cubesat XI-IV 26 Jul 05:42:06 05:43:47 11° 91° (E) 05:45:27 437.490
SRMSAT 26 Jul 05:42:49 05:46:47 18° 176° (S) 05:50:44 437.500
PCSat 26 Jul 05:44:47 05:50:01 51° 249° (WSW) 05:55:13 145.827
GOMX 1 26 Jul 05:50:53 05:52:58 12° 92° (E) 05:55:06 467.674
DANDE 26 Jul 05:52:57 05:56:31 16° 282° (WNW) 05:59:36 436.750
CUTE-I 26 Jul 06:04:11 06:08:09 21° 95° (E) 06:12:05 437.470
STRAND 1 26 Jul 06:04:21 06:07:33 17° 65° (ENE) 06:10:45 437.568
AIST 2 26 Jul 06:11:19 06:15:15 38° 57° (ENE) 06:19:08 435.215
